Location: Nied?wied?
(53.3665°N, 14.8184°E)
Time: 18:22:42
(UTC+00:00)

ISS - Pass Details

Date: 19 May 2021
Orbit: 417 x 422 km, 51.6° (Epoch: 14 June)

Event Time Altitude Azimuth Distance (km) Brightness Sun altitude
Rises 20:05:43 0° 247° (WSW) 2,361 0.3 -7.9°
Reaches altitude 10° 20:07:50 10° 242° (WSW) 1,500 -0.8 -8.1°
Maximum altitude 20:11:07 51° 165° (SSE) 536 -3.6 -8.4°
Drops below altitude 10° 20:14:24 10° 89° (E) 1,506 -1.3 -8.7°
Sets 20:16:32 0° 84° (E) 2,373 -0.3 -8.9°
